Location: LDNL
(36.4545°S, 141.6685°E)
Time: 12:10:26
(UTC+10:00)

Vanguard 3 - Pass Details

Date: 01 February 2022
Orbit: 508 x 3258 km, 33.3° (Epoch: 25 May)

Event Time Altitude Azimuth Distance (km) Brightness Sun altitude
Rises 06:30:34 0° 260° (W) 5,648 10.9 -4.3°
Reaches altitude 10° 06:34:17 10° 268° (W) 4,987 10.6 -3.6°
Maximum altitude 06:47:35 36° 327° (NNW) 4,124 10.4 -1.2°
Drops below altitude 10° 07:04:18 10° 24° (NNE) 6,174 11.7 2.0°
Sets 07:09:41 0° 31° (NNE) 7,094 12.1 3.0°
